This demonstration page uses our WeatherBlox Daily Observations layout. Learn more.

Left ArrowRight Arrow

39.92423, -83.80882

Hourly Observations for December 26, 2015

Temp ( °F °C ) Dew Point ( °F °C ) Humidity (%) Winds ( mph kmh ) Pressure ( in mb ) Visibility ( mi km ) Precip ( " mm )
12:56 am 00:56 Cloudy 43 6.1 38 3.3 82 82 ENE 13 20 30.31 1026 10 16.0934 0 0
1:56 am 01:56 Mostly Cloudy 43 6.1 37 2.7 79 79 ENE 14 22 30.29 1026 10 16.0934 0 0
2:56 am 02:56 Cloudy 43 6.1 38 3.3 82 82 ENE 13 20 30.29 1026 10 16.0934 0 0
3:56 am 03:56 Cloudy 44 6.6 38 3.3 80 80 ENE 14 22 30.29 1026 10 16.0934 0 0
4:56 am 04:56 Cloudy 44 6.6 38 3.3 80 80 ENE 10 17 30.27 1025 10 16.0934 0 0
5:56 am 05:56 Cloudy 45 7.2 39 3.8 79 79 ENE 12 19 30.27 1025 10 16.0934 0 0
6:56 am 06:56 Cloudy 44 6.6 41 5 90 90 E 16 26 30.26 1025 10 16.0934 0 0
7:13 am 07:13 Cloudy 45 7 41 5 87 87 E 14 22 30.27 1025 10 16.0934 0 0
7:56 am 07:56 Cloudy 44 6.6 42 5.5 93 93 E 12 19 30.26 1025 9 14.48406 0 0
8:14 am 08:14 Cloudy with Mist and Fog 45 7 43 6 93 93 E 9 15 30.27 1025 3 4.82802 0 0
8:35 am 08:35 Cloudy with Mist and Fog 45 7 43 6 93 93 E 13 20 30.27 1025 2.5 4.02335 0 0
8:42 am 08:42 Cloudy with Mist and Fog 45 7 43 6 93 93 E 9 15 30.3 1026 4 6.43736 0 0
8:56 am 08:56 Cloudy 44 6.6 43 6.1 97 97 E 12 19 30.27 1025 7 11.26538 0 0
9:56 am 09:56 Cloudy 45 7.2 44 6.6 96 96 E 14 22 30.25 1024 10 16.0934 0 0
10:56 am 10:56 Cloudy with Mist and Fog 46 7.7 46 7.7 100 100 ESE 10 17 30.25 1024 4 6.43736 0 0
11:56 am 11:56 Cloudy with Mist and Fog 47 8.3 47 8.3 100 100 ESE 9 15 30.22 1023 4 6.43736 0 0
12:03 pm 12:03 Cloudy with Mist and Fog 46 8 46 8 100 100 ESE 9 15 30.24 1024 4 6.43736 0 0
12:45 pm 12:45 Cloudy with Mist and Fog 48 9 48 9 100 100 SE 7 11 30.21 1023 1.5 2.41401 0 0
12:48 pm 12:48 Cloudy with Mist and Fog 48 9 48 9 100 100 SE 7 11 30.21 1023 1 1.60934 0 0
12:56 pm 12:56 Cloudy with Mist and Fog 48 8.8 48 8.8 100 100 VRB 6 9 30.18 1022 0.75 1.207005 0 0
1:18 pm 13:18 Cloudy with Mist and Fog 48 9 48 9 100 100 ESE 7 11 30.18 1022 1 1.60934 0 0
1:26 pm 13:26 Cloudy with Light Rain 48 9 48 9 100 100 ESE 9 15 30.18 1022 1.25 2.011675 0 0.0254
1:33 pm 13:33 Cloudy with Light Rain 48 9 48 9 100 100 SE 7 11 30.18 1022 2 3.21868 0 0.0254
1:56 pm 13:56 Cloudy with Light Rain 49 9.4 49 9.4 100 100 ESE 8 13 30.16 1021 2.5 4.02335 0.02 0.508
2:04 pm 14:04 Cloudy with Light Rain 48 9 48 9 100 100 SE 7 11 30.18 1022 3 4.82802 0 0.0254
2:56 pm 14:56 Cloudy with Mist and Fog 51 10.5 51 10.5 100 100 SE 7 11 30.13 1020 4 6.43736 0.03 0.762
3:56 pm 15:56 Cloudy with Light Rain 53 11.6 53 11.6 100 100 SE 6 9 30.14 1021 2 3.21868 0.03 0.762
4:18 pm 16:18 Cloudy with Mist and Fog 54 12 54 12 100 100 E 5 7 30.12 1020 3 4.82802 0.01 0.254
4:28 pm 16:28 Cloudy with Mist and Fog 54 12 54 12 100 100 E 3 6 30.12 1020 2.5 4.02335 0.01 0.254
4:47 pm 16:47 Cloudy with Mist and Fog 54 12 54 12 100 100 E 5 7 30.12 1020 1.75 2.816345 0.01 0.254
4:56 pm 16:56 Cloudy with Light Rain 53 11.6 53 11.6 100 100 ESE 6 9 30.11 1020 2 3.21868 0.03 0.762
5:06 pm 17:06 Cloudy with Rain 54 12 54 12 100 100 ESE 6 9 30.09 1019 1.5 2.41401 0.04 1.016
5:21 pm 17:21 Cloudy with Light Rain 54 12 54 12 100 100 ESE 6 9 30.09 1019 2.5 4.02335 0.07 1.778
5:31 pm 17:31 Cloudy with Light Rain 54 12 54 12 100 100 ESE 8 13 30.09 1019 4 6.43736 0.07 1.778
5:56 pm 17:56 Cloudy 55 12.7 55 12.7 100 100 SE 8 13 30.1 1019 10 16.0934 0.07 1.778
6:04 pm 18:04 Cloudy with Light Rain 55 13 55 13 100 100 SSE 9 15 30.09 1019 7 11.26538 0.02 0.508
6:56 pm 18:56 Cloudy 56 13.3 56 13.3 100 100 SSE 9 15 30.09 1019 7 11.26538 0.04 1.016
7:56 pm 19:56 Cloudy 58 14.4 58 14.4 100 100 SSE 7 11 30.07 1018 10 16.0934 0 0
8:17 pm 20:17 Cloudy with Light Rain 59 15 59 15 100 100 SSE 7 11 30.06 1018 1.75 2.816345 0.04 1.016
8:24 pm 20:24 Cloudy with Light Rain 59 15 59 15 100 100 S 5 7 30.06 1018 1.5 2.41401 0.04 1.016
8:29 pm 20:29 Cloudy with Mist and Fog 59 15 59 15 100 100 S 6 9 30.06 1018 2 3.21868 0.05 1.27
8:41 pm 20:41 Cloudy with Mist and Fog 59 15 59 15 100 100 SSE 5 7 30.06 1018 3 4.82802 0.06 1.524
8:56 pm 20:56 Cloudy with Mist and Fog 59 15 59 15 100 100 S 8 13 30.06 1018 6 9.65604 0.06 1.524
9:20 pm 21:20 Cloudy 59 15 59 15 100 100 S 7 11 30.06 1018 10 16.0934 0 0
9:56 pm 21:56 Cloudy 60 15.5 60 15.5 100 100 S 9 15 30.04 1017 10 16.0934 0 0
10:14 pm 22:14 Cloudy 61 16 61 16 100 100 S 9 15 30.03 1017 10 16.0934 0 0
10:56 pm 22:56 Mostly Cloudy 60 15.5 60 15.5 100 100 S 7 11 30.02 1017 10 16.0934 0 0
11:24 pm 23:24 Cloudy 61 16 61 16 100 100 S 9 15 30 1016 10 16.0934 0 0
11:56 pm 23:56 Cloudy 61 16.1 61 16.1 100 100 S 7 11 30 1016 10 16.0934 0 0

Powered by AerisWeather